Location: Czekan�w
(50.3488°N, 18.7344°E)
Time: 19:39:52
(UTC+00:00)

Cosmos 1633 - Pass Details

Date: 17 February 2020
Orbit: 464 x 482 km, 82.5° (Epoch: 05 April)

Event Time Altitude Azimuth Distance (km) Brightness Sun altitude
Rises 03:53:33 0° 354° (N) 2,560 6.2 -19.8°
Reaches altitude 10° 03:55:43 10° 1° (N) 1,676 5.3 -19.4°
Maximum altitude 03:59:15 45° 75° (ENE) 668 3.7 -18.9°
Drops below altitude 10° 04:02:46 10° 150° (SSE) 1,663 5.6 -18.3°
Sets 04:04:55 0° 157° (SSE) 2,537 6.5 -18.0°
